STARLINK-6075 (56102 NORAD) Tracking and Keplerian Element Data

This shows tracking and keplerian element data for the satellite.

Feedback or suggestion? Click here.




ElementValue
Catalog56102
NameSTARLINK-6075
Epoch Orbit652
Epoch Day127.25001157
Epoch Year2023
RAAN37.9442
Inclination43.0006
Eccentricity0.0001485
Argument of Perigee270.4361
Mean Anonmoly50.6727
Mean Motion15.27917452
Decay Rate-0.00901362
L11 56102U 23046K 23127.25001157 -.00901362 00000+0 -35361-1 0 9996
L22 56102 43.0006 37.9442 0001485 270.4361 50.6727 15.27917452 6522



Live tracking and technical data element details for STARLINK-6075 (NORAD 56102). STARLINK-6075 can be tracked NOW for your location showing map with azimuth and elevation plus other details from your city location.







IsCatalogInMostPopularTable: catalog: 56102, numindb: 3
Update: records affected: 1



GetName: 56102 STARLINK-6075

Hit Count: updated at: Sun, 04 Jun 2023 23:23:38 GMT